Location: Black River Observatory
(43.1000°N, 82.6200°W)
Time: 00:09:16
(UTC-04:00)

Daily predictions for brighter satellites

Satellite Brightness Start Highest point End
(mag) Time Altitude Azimuth Time Altitude Azimuth Time Altitude Azimuth
Lacrosse 5 3.4 00:00:53 10° W 00:05:35 37° NNW 00:10:18 10° NE
CZ-4 R/B 4.2 00:09:37 10° NNE 00:14:16 46° E 00:14:51 44° ESE
Cosmos 1709 Rocket 4.0 00:10:39 10° N 00:16:55 79° W 00:19:27 38° S
ALOS 2 3.6 00:20:27 32° E 00:21:20 35° ENE 00:25:20 10° N
Cosmos 2278 Rocket 2.3 00:20:27 27° SW 00:23:39 73° WNW 00:29:21 10° NNE
NOSS 3-4 (A) 3.4 00:20:16 27° SSW 00:23:52 85° SE 00:30:20 10° NE
NOSS 3-4 (C) 3.3 00:20:26 27° SSW 00:23:57 84° SE 00:30:25 10° NE
NOSS 2-2 (E) 3.3 00:24:27 67° ESE 00:24:27 67° ESE 00:28:44 10° NE
Aureole 3 Rocket 4.3 00:23:27 30° S 00:27:50 84° W 00:33:57 10° N
COSMOS 2406 4.5 00:23:45 10° NW 00:28:40 30° WSW 00:30:39 24° SW
Cosmos 2074 Rocket 4.3 00:23:01 10° N 00:29:10 56° ENE 00:31:22 38° SE
Cosmos 1441 Rocket 4.1 00:30:29 10° N 00:34:03 38° ENE 00:34:03 38° ENE
Cosmos 1461 3.4 00:34:21 37° SW 00:36:06 70° NW 00:40:53 10° NNE
CENTAUR R/B 3.3 00:28:15 10° NNW 00:36:09 67° NE 00:41:25 26° SE
Cosmos 1766 Rocket 3.4 00:37:40 70° S 00:38:10 84° E 00:42:39 10° N
Cosmos 1408 Rocket 3.5 00:40:10 68° SE 00:40:31 72° E 00:44:59 10° NNE
ADEOS Rocket 3.2 00:35:37 10° NNE 00:41:23 55° E 00:43:06 42° SSE
Cosmos 405 Rocket 3.7 00:38:04 10° N 00:41:21 35° ENE 00:41:21 35° ENE
DELTA 2 DEB (DPAF) 4.4 00:41:48 52° ESE 00:42:25 57° ENE 00:46:49 10° N
COBE Rocket 4.4 00:38:13 10° N 00:43:10 57° WNW 00:45:03 36° SW
SL-8 R/B 4.2 00:38:34 10° W 00:43:21 60° NNW 00:48:08 10° ENE
USA 234 3.7 00:39:32 10° ENE 00:45:37 39° SE 00:46:17 39° SE
Cosmos 1515 Rocket 4.2 00:43:15 10° N 00:47:29 43° ENE 00:47:56 41° E
Cosmos 1151 Rocket 3.6 00:44:43 10° N 00:48:49 43° ENE 00:49:07 42° E
RESURS DK-1 2.5 00:50:15 62° E 00:50:15 62° E 00:54:03 10° NNE
SL-27 R/B 2.7 00:46:22 10° NNW 00:49:37 68° N 00:49:37 68° N
Cosmos 1703 3.4 00:50:17 65° W 00:50:21 65° W 00:54:15 10° N
Cosmos 1869 4.4 00:47:46 10° N 00:51:24 33° ENE 00:51:31 32° E
Meteor 1-27 4.2 00:45:39 10° NNW 00:51:30 82° W 00:53:08 50° S
H-2A R/B 2.5 00:53:56 46° E 00:54:14 47° ENE 00:58:11 10° N
NOSS 2-2 (D) 3.4 00:53:57 68° W 00:54:17 74° NW 00:58:42 10° NNE
H-2A R/B 4.4 00:49:48 27° SSW 00:55:09 43° SSE 02:52:37 10° E
Cosmos 2369 Rocket 4.0 00:55:50 17° ESE 00:56:09 17° E 00:59:39 10° ENE
Cosmos 2297 3.6 01:01:31 49° SSW 01:03:10 88° WNW 01:08:55 10° NNE
Meteor 2-10 Rocket 3.9 00:58:52 10° N 01:03:54 55° ENE 01:05:02 45° ESE
Cosmos 2184 Rocket 4.0 00:57:43 10° N 01:04:06 84° W 01:06:02 48° S
Mayak -1.3 01:03:19 10° N 01:07:30 75° WNW 01:07:41 72° WSW
Cosmos 2228 Rocket 3.1 01:03:50 10° N 01:08:19 69° E 01:08:37 66° ESE
Meteor 2-21 4.3 01:02:55 10° N 01:09:00 81° E 01:10:42 50° SSE
Cosmos 2154 Rocket 4.2 01:04:23 10° N 01:10:43 65° E 01:12:48 43° SE
Cosmos 2082 Rocket 2.3 01:05:18 10° NNW 01:10:56 61° WSW 01:12:02 51° SSW
deb Chang Zheng 4 4.2 01:08:21 10° NNE 01:12:31 43° E 01:12:31 43° E
ATLAS 3B R/B 3.9 01:10:03 10° WNW 01:15:01 23° WSW 01:16:10 22° SW
ATLAS 5 CENTAUR R/B 2.3 01:14:01 36° WSW 01:15:36 55° NW 01:20:30 10° NNE
Cosmos 1833 Rocket 3.1 01:14:52 10° NW 01:20:11 45° WSW 01:20:59 42° SW
NOSS 2-2 (C) 4.4 01:19:16 32° W 01:20:28 42° NW 01:24:44 10° NNE
Cosmos 2151 3.0 01:20:45 67° W 01:20:54 68° W 01:25:09 10° N
Cosmos 2341 Rocket 4.5 01:15:04 10° N 01:21:16 52° ENE 01:23:35 36° SE
Cosmos 332 Rocket 4.2 01:16:32 10° NNW 01:21:24 56° ENE 01:22:28 46° ESE
CZ-4C R/B 3.7 01:24:27 56° W 01:24:27 56° W 01:28:05 10° NNW
Cosmos 1328 Rocket 4.2 01:27:29 10° NNW 01:31:34 41° W 01:31:39 41° W
Cosmos 1743 Rocket 3.6 01:31:37 62° WSW 01:31:52 64° W 01:36:16 10° N
Cosmos 1455 4.2 01:34:18 10° NW 01:36:45 19° W 01:36:45 19° W
CZ-4B R/B 3.8 01:32:52 10° N 01:38:06 62° WNW 01:39:27 46° SW
Cosmos 1900 4.3 01:40:36 60° SE 01:40:49 61° ESE 01:45:40 10° NE
Cosmos 1805 Rocket 4.2 01:40:58 43° E 01:41:07 44° E 01:45:19 10° NNE
Cosmos 2058 4.2 01:42:06 29° W 01:42:31 30° WNW 01:46:14 10° NNW
COSMOS 2487 3.1 01:43:09 10° NNW 01:46:11 53° NNE 01:46:11 53° NNE
Cosmos 1943 Rocket 3.1 01:45:58 31° ESE 01:46:44 33° ESE 01:51:38 10° NE
Meteor 2-16 Rocket 4.4 01:42:03 10° NNW 01:48:12 76° W 01:49:53 50° SSW
Sich 1 3.9 01:49:47 36° E 01:50:04 37° E 01:54:07 10° NNE
MOS 1 Rocket 3.6 01:46:52 10° NNE 01:51:47 54° E 01:52:22 50° SE
BREEZE-M TANK 4.2 01:55:45 21° E 01:55:45 21° E 01:56:49 10° E
Cosmos 1892 3.5 01:56:16 42° E 01:56:16 42° E 01:59:35 10° NNE
Cosmos 1140 Rocket 3.3 01:55:35 63° SSW 01:56:27 89° E 02:01:36 10° NNE
Timation 2 Rocket 4.3 01:50:26 10° NNW 01:57:08 73° ENE 02:00:37 31° SE
ALOS 2 4.2 01:57:50 22° W 01:57:50 22° W 02:01:11 10° NW
Cosmos 1500 Rocket 4.3 01:57:54 40° W 01:58:17 41° WNW 02:02:24 10° N
Cosmos 676 Rocket 4.0 01:58:15 57° SW 01:59:18 77° WNW 02:04:31 10° NNE
Cosmos 1954 Rocket 3.9 01:58:39 61° SSW 01:59:35 88° WNW 02:04:47 10° NNE
CZ-4C R/B 4.2 02:03:26 35° E 02:03:44 36° ENE 02:07:08 10° N
Cosmos 1707 Rocket 3.8 02:00:08 10° N 02:04:29 58° E 02:05:04 53° ESE
Cosmos 407 Rocket 4.4 02:05:42 31° WSW 02:07:22 40° WNW 02:12:15 10° N
Cosmos 2366 rocket 4.3 02:01:22 10° N 02:07:26 59° ENE 02:09:59 34° SE
Cosmos 614 Rocket 4.0 02:06:25 53° SW 02:07:33 70° WNW 02:12:41 10° NNE
SL-16 R/B 4.5 02:03:10 10° ESE 02:07:51 23° ENE 02:12:32 10° N
Cosmos 1633 Rocket 3.7 02:08:40 42° ESE 02:09:10 44° E 02:13:23 10° NNE
Cosmos 304 Rocket 3.8 02:19:32 10° NNW 02:24:21 78° ENE 02:25:31 51° SE
SL-24 R/B 4.5 02:20:14 10° N 02:25:03 77° WNW 02:26:24 51° SSW
PSLV R/B 3.7 02:21:49 10° NNE 02:26:34 89° W 02:27:27 60° SSW
CENTAUR R/B 3.9 02:19:32 10° NW 02:26:37 34° WSW 02:28:33 31° SW
Landsat 5 4.0 02:26:59 40° ESE 02:27:42 46° ENE 02:31:24 10° N
Meteor 2-3 Rocket 4.1 02:25:50 39° SSE 02:27:46 58° E 02:33:26 10° NNE
Cosmos 1570 Rocket 4.4 02:23:16 10° NNW 02:28:31 61° ENE 02:30:54 31° SE
USA 234 3.5 02:22:20 10° NE 02:28:49 66° NW 02:33:36 19° WSW
H-2A R/B 4.1 02:31:02 14° W 02:31:02 14° W 02:32:49 10° WNW
Resurs 1-4 Rocket 4.0 02:26:57 10° NE 02:30:55 21° E 02:33:30 15° SE
Cosmos 1666 Rocket 3.3 02:31:34 70° SSW 02:32:02 85° W 02:36:24 10° N
Cosmos 371 Rocket 4.3 02:29:24 10° NW 02:33:37 31° W 02:33:37 31° W
SL-08 R/B 4.4 02:31:36 10° N 02:37:44 86° E 02:40:17 38° S
Cosmos 2369 Rocket 2.3 02:37:37 42° SW 02:39:30 71° WNW 02:45:11 10° NNE
Cosmos 1689 Rocket 3.3 02:41:36 37° ENE 02:41:39 37° ENE 02:44:30 10° N
Cosmos 1850 Rocket 3.9 02:40:46 50° SSW 02:42:09 83° WNW 02:47:25 10° NNE
deb Kosmos-1763 4.1 02:40:30 10° NNW 02:44:04 70° W 02:44:04 70° W
BREEZE-M DEB (TANK) 3.8 02:42:15 34° SSW 02:44:56 56° SSE 02:48:05 10° ENE
GP-B 3.7 02:47:32 10° NNE 02:51:53 50° E 02:53:22 35° SE
Lacrosse 4 Rocket 2.8 02:52:46 26° SE 02:53:38 29° ESE 02:57:28 10° NE
Cosmos 2242 Rocket 3.6 02:52:16 10° N 02:56:47 80° E 02:58:04 46° SSE
ARIANE 5 R/B 4.4 02:56:34 10° NE 03:00:17 21° E 03:03:29 12° SE
ATLAS 5 CENTAUR R/B 4.5 02:59:05 10° NW 03:01:32 14° NNW 03:04:06 10° N
SL-08 R/B 4.2 03:00:50 18° SE 03:04:08 46° ENE 03:08:37 10° N
Cosmos 1606 2.7 03:00:58 10° N 03:04:47 78° E 03:05:33 54° SSE
Cosmos 1763 Rocket 3.9 03:00:42 10° NNW 03:05:44 60° ENE 03:09:28 18° SE
Cosmos 1821 Rocket 4.4 03:01:45 10° N 03:08:00 62° E 03:12:45 18° SSE
Cosmos 1825 2.0 03:07:42 65° SSW 03:08:11 82° W 03:11:59 10° N
Cosmos 405 3.3 03:15:32 48° W 03:15:47 50° WNW 03:19:15 10° N
Cosmos 1656 Rocket 3.7 03:14:34 35° S 03:17:01 76° ESE 03:22:40 10° NNE
Cosmos 1408 3.0 03:18:48 45° WSW 03:19:16 48° W 03:22:53 10° N
CZ-4B R/B 2.0 03:20:24 37° WNW 03:20:24 37° WNW 03:22:52 10° NNW
Cosmos 1814 Rocket 4.1 03:16:19 10° NNW 03:21:39 76° ENE 03:25:46 17° SSE
BREEZE-M DEB (TANK) 2.6 03:20:01 10° NW 03:22:10 53° NNE 03:25:45 10° ESE
Cosmos 1867 4.0 03:20:08 31° S 03:22:26 52° ESE 03:27:44 10° NE
Cosmos 1833 4.1 03:19:08 10° NNW 03:24:40 65° WSW 03:27:45 27° S
Spot 2 4.4 03:23:07 10° N 03:27:23 51° WNW 03:28:44 36° WSW
Meteor 2-6 Rocket 4.1 03:23:01 10° N 03:28:26 81° E 03:32:08 21° SSE
NPP 3.6 03:23:03 10° NNE 03:28:29 90° NNE 03:31:13 31° SSW
Cosmos 1943 Rocket 3.1 03:27:29 22° WSW 03:30:22 37° WNW 03:35:33 10° N
Cosmos 1862 Rocket 4.0 03:26:34 10° NNW 03:30:52 46° W 03:32:05 36° SW
Cosmos 1703 Rocket 3.8 03:27:25 10° N 03:31:49 66° E 03:34:33 22° SSE
Cosmos 1437 Rocket 4.0 03:29:54 20° SSE 03:32:08 37° E 03:35:57 10° NNE
Cosmos 841 Rocket 3.6 03:29:58 10° NNW 03:35:13 76° ENE 03:40:08 11° SSE
Cosmos 1818 3.5 03:29:45 10° NW 03:35:15 74° WSW 03:40:38 10° SSE
CZ-2D R/B 2.1 03:33:41 10° NNE 03:39:00 81° ESE 03:42:08 26° S
AQUA 3.8 03:34:46 10° NNE 03:39:33 86° WNW 03:41:55 30° SSW
Cosmos 1782 3.0 03:36:05 10° NNW 03:39:56 51° W 03:41:03 38° SW
ADEOS II 4.1 03:38:48 10° NE 03:42:47 21° E 03:46:44 10° SE
Cosmos 468 Rocket 4.5 03:38:09 10° NW 03:42:56 40° WSW 03:44:48 29° SSW
Cosmos 1184 Rocket 4.2 03:40:11 10° N 03:43:14 35° ENE 03:45:50 13° SE
Okean 1-7 3.3 03:40:13 10° N 03:44:38 66° E 03:47:58 17° SSE
Meteor 1-10 Rocket 4.2 03:40:31 10° NNW 03:46:04 72° W 03:49:55 21° S
IRS-1D 3.6 03:41:49 10° NNE 03:47:00 77° ESE 03:50:08 24° S
Meteor 1-27 Rocket 4.0 03:42:53 10° N 03:48:43 74° E 03:54:35 10° SSE
Cosmos 2219 3.8 03:44:53 10° NNW 03:50:29 57° ENE 03:56:01 10° SE
IRS-P3 4.2 03:45:24 10° N 03:50:42 66° WNW 03:53:47 25° SSW
SL-16 R/B 2.5 03:46:32 20° S 03:50:57 64° WSW 03:57:05 10° NNW
PSLV R/B 2.9 03:52:36 52° SW 03:52:56 57° S 03:55:50 10° ESE
H-2A R/B 2.3 03:49:47 10° N 03:53:49 73° WNW 03:55:37 30° SSW
UNK 4.0 03:55:00 26° SSW 03:57:23 50° W 04:01:57 10° NNW
Meteor 1-4 Rocket 3.3 03:56:02 19° SSE 03:58:18 47° E 04:01:52 10° NNE
Cosmos 1535 Rocket 4.5 03:54:02 10° NNW 04:00:06 67° W 04:04:57 17° S
PSLV R/B 3.9 03:58:15 16° SSE 04:01:36 86° W 04:05:50 10° NNW
Cosmos 1605 Rocket 4.0 03:58:02 10° N 04:04:10 80° E 04:10:17 10° S
USA 229 DEB 4.1 03:58:59 10° NW 04:06:12 74° NE 04:13:36 10° SE
USA 229 4.1 03:59:05 10° NW 04:06:18 74° NE 04:13:42 10° SE
Cosmos 1486 Rocket 4.0 04:03:10 23° SSW 04:06:35 78° WNW 04:11:56 10° NNE
SL-8 R/B 3.9 04:04:34 10° WNW 04:09:25 77° NNE 04:14:14 10° ESE
Resurs 1-4 Rocket 2.5 04:05:52 10° N 04:11:03 52° WNW 04:14:34 20° SW
Cosmos 1862 3.7 04:12:47 24° SW 04:14:49 46° WNW 04:18:39 10° N
Cosmos 2297 Rocket 3.7 04:13:30 10° NNW 04:18:49 39° ENE 04:24:04 10° SE
Cosmos 44 3.5 04:17:36 18° SSW 04:20:58 61° ESE 04:25:52 10° NE
SAR-Lupe-2 3.7 04:17:39 10° SSE 04:21:12 74° ENE 04:24:47 10° N
BREEZE M DEB (TANK) 3.8 04:17:23 10° WNW 04:21:15 27° N 04:23:20 10° ENE
Cosmos 1934 Rocket 4.3 04:15:40 10° NNW 04:21:48 52° W 04:27:12 13° SSW
Cosmos 2369 Rocket 4.4 04:21:50 10° WNW 04:24:36 14° NW 04:27:22 10° NNW
Cosmos 389 Rocket 3.6 04:21:49 10° SSE 04:25:14 42° E 04:28:43 10° NNE
Cosmos 2227 Rocket 3.2 04:21:35 10° NNW 04:27:07 50° ENE 04:32:36 10° SE
ATLAS CENTAUR Rocket 3.7 04:26:13 11° S 04:28:14 15° SSE 04:31:57 10° ESE
COSMOS 2455 2.9 04:23:53 10° NW 04:29:46 56° WSW 04:35:36 10° S
Lacrosse 4 Rocket 2.7 04:29:05 14° WSW 04:32:16 32° NW 04:36:18 10° NNE
Cosmos 968 Rocket 4.2 04:27:26 10° S 04:32:30 51° ESE 04:37:36 10° NNE
Cosmos 1503 Rocket 4.0 04:28:22 15° SSW 04:32:42 86° WNW 04:37:54 10° NNE
UNKNOWN OBJECT B 2.8 04:33:10 10° N 04:37:09 83° WNW 04:40:53 12° SSW
ARIANE 5 R/B 2.9 04:34:52 10° N 04:39:39 47° WNW 04:43:50 13° SW
Delta 2 Rocket 4.4 04:37:14 15° SW 04:40:22 33° S 04:44:50 10° ESE
Cosmos 2221 Rocket 4.2 04:38:29 10° NNW 04:42:37 39° W 04:46:36 11° SSW
CZ-2D R/B 3.6 04:43:53 10° N 04:48:08 61° WNW 04:52:06 11° SSW
ATLAS CENTAUR R/B 1.8 04:45:54 11° SSW 04:49:25 51° ESE 04:53:18 10° NE
Cosmos 1633 2.5 04:46:51 10° SSW 04:50:25 76° W 04:54:03 10° N
BREEZE-M DEB (TANK) 3.1 04:50:43 10° WNW 04:55:48 66° N 04:58:33 10° E
ASTEX 1 3.4 04:52:19 10° S 04:57:19 86° W 05:02:22 10° N
Cosmos 1727 Rocket 4.2 04:51:52 10° SSW 04:57:56 56° WNW 05:04:06 10° N
Cosmos 2173 Rocket 4.1 04:54:12 10° N 05:00:21 84° E 05:06:26 10° S
Cosmos 1656 4.1 04:54:47 10° S 05:00:23 63° ESE 05:06:00 10° NNE
Cosmos 2082 4.1 04:55:34 10° NNW 05:01:14 68° ENE 05:06:49 10° SSE
ADEOS 3.8 04:57:43 10° N 05:02:50 57° WNW 05:07:56 10° SSW
Meteor 1-25 Rocket 4.2 04:58:00 10° S 05:03:34 89° E 05:09:09 10° N
Cosmos 540 Rocket 4.4 05:02:07 10° NW 05:06:24 27° W 05:10:41 10° SSW
Centaur D AC-28 4.4 05:01:54 10° WSW 05:07:34 14° SW 05:10:53 10° SSW
Meteor 2-12 Rocket 4.5 05:09:05 10° NNW 05:15:12 72° W 05:21:15 10° S
Helios 1A Rocket 3.8 05:11:35 10° N 05:15:15 35° WNW 05:18:55 10° SW
Cosmos 1812 3.6 05:12:43 10° NNW 05:16:10 31° W 05:19:34 10° SSW
CZ-2D R/B 4.1 05:15:29 10° NNW 05:18:24 15° WNW 05:21:20 10° W
Lacrosse 5 2.9 05:13:31 10° NW 05:18:29 52° NE 05:23:25 10° ESE
ATLAS 2A CENTAUR R/B 4.2 05:13:28 10° SW 05:19:27 18° S 05:23:20 10° SE
Cosmos 1602 4.3 05:16:43 10° S 05:20:31 61° E 05:24:19 10° NNE
NOSS 3-1 (C) 4.1 05:15:09 10° NW 05:22:44 67° WSW 05:31:09 10° SSE
